| time (UTC) | temp F | wind direction | speed knots | gust knots | rain 1hr in | rain 24hr in | rain mn in | humidity % | barometer mb |
| 20260504040004 | 57 | 171 | 0.0 | 0.0 | 0.00 | 0.00 | 0.00 | 36 | 992.9 |
| 20260504034550 | 57 | 184 | 0.0 | 0.0 | 0.00 | 0.00 | 0.00 | 36 | 993.2 |
| 20260504033013 | 58 | 184 | 0.0 | 0.0 | 0.00 | 0.00 | 0.00 | 35 | 993.5 |
| 20260504031555 | 58 | 192 | 0.0 | 0.0 | 0.00 | 0.00 | 0.00 | 34 | 993.9 |
| 20260504030012 | 57 | 159 | 0.0 | 0.0 | 0.00 | 0.00 | 0.00 | 34 | 994.4 |
| 20260504024553 | 57 | 197 | 0.0 | 0.0 | 0.00 | 0.00 | 0.00 | 36 | 994.6 |
| 20260504023027 | 57 | 200 | 0.0 | 0.0 | 0.00 | 0.00 | 0.00 | 33 | 994.8 |
| 20260504021609 | 57 | 194 | 0.0 | 0.0 | 0.00 | 0.00 | 0.00 | 34 | 995.0 |
| 20260504020042 | 58 | 181 | 0.0 | 0.0 | 0.00 | 0.00 | 0.00 | 32 | 995.2 |
| 20260504014506 | 60 | 245 | 0.0 | 0.0 | 0.00 | 0.00 | 0.00 | 30 | 995.4 |
| 20260504013101 | 61 | 245 | 0.0 | 0.0 | 0.00 | 0.00 | 0.00 | 28 | 995.6 |
| 20260504011510 | 62 | 196 | 0.0 | 0.0 | 0.00 | 0.00 | 0.00 | 27 | 995.7 |
| 20260504010050 | 63 | 265 | 0.0 | 0.0 | 0.00 | 0.00 | 0.00 | 27 | 995.9 |
| 20260504004517 | 64 | 222 | 0.0 | 0.0 | 0.00 | 0.00 | 0.00 | 25 | 996.1 |
| 20260504003100 | 64 | 240 | 0.0 | 0.0 | 0.00 | 0.00 | 0.00 | 25 | 996.3 |
| 20260504001535 | 65 | 321 | 0.0 | 0.0 | 0.00 | 0.00 | 0.00 | 24 | 996.4 |
| 20260504000108 | 66 | 259 | 0.0 | 0.0 | 0.00 | 0.00 | 0.00 | 23 | 996.4 |
| 20260503234530 | 66 | 246 | 0.0 | 0.0 | 0.00 | 0.00 | 0.00 | 23 | 996.3 |
| 20260503233104 | 66 | 250 | 0.0 | 0.0 | 0.00 | 0.00 | 0.00 | 22 | 996.6 |
| 20260503231533 | 67 | 250 | 0.0 | 0.0 | 0.00 | 0.00 | 0.00 | 23 | 997.0 |
| 20260503230004 | 68 | 267 | 0.0 | 0.0 | 0.00 | 0.00 | 0.00 | 22 | 997.0 |
| 20260503224541 | 68 | 221 | 0.0 | 0.0 | 0.00 | 0.00 | 0.00 | 22 | 997.2 |
| 20260503223011 | 68 | 184 | 0.0 | 0.0 | 0.00 | 0.00 | 0.00 | 22 | 997.2 |
| 20260503221559 | 68 | 289 | 0.0 | 0.0 | 0.00 | 0.00 | 0.00 | 21 | 997.4 |
| 20260503220019 | 69 | 279 | 0.0 | 0.0 | 0.00 | 0.00 | 0.00 | 22 | 997.3 |
| 20260503214552 | 68 | 5 | 0.0 | 0.0 | 0.00 | 0.00 | 0.00 | 20 | 997.4 |
| 20260503213024 | 68 | 286 | 0.0 | 0.0 | 0.00 | 0.00 | 0.00 | 21 | 997.4 |
| 20260503211606 | 68 | 306 | 0.0 | 0.0 | 0.00 | 0.00 | 0.00 | 23 | 997.6 |
| 20260503210031 | 68 | 209 | 0.0 | 0.0 | 0.00 | 0.00 | 0.00 | 22 | 997.7 |
| 20260503204501 | 68 | 229 | 0.0 | 0.0 | 0.00 | 0.00 | 0.00 | 23 | 998.0 |
| 20260503203047 | 68 | 257 | 0.0 | 0.0 | 0.00 | 0.00 | 0.00 | 22 | 998.0 |
| 20260503201517 | 68 | 331 | 0.0 | 0.0 | 0.00 | 0.00 | 0.00 | 23 | 998.3 |
| 20260503200100 | 67 | 320 | 0.0 | 0.0 | 0.00 | 0.00 | 0.00 | 24 | 998.5 |
| 20260503194525 | 66 | 350 | 0.0 | 0.0 | 0.00 | 0.00 | 0.00 | 23 | 998.6 |
| 20260503193120 | 66 | 355 | 0.0 | 0.0 | 0.00 | 0.00 | 0.00 | 23 | 998.8 |
| 20260503191603 | 66 | 355 | 0.0 | 0.0 | 0.00 | 0.00 | 0.00 | 23 | 998.9 |
| 20260503190016 | 65 | 336 | 0.0 | 0.0 | 0.00 | 0.00 | 0.00 | 21 | 999.1 |
| 20260503184539 | 66 | 5 | 0.0 | 0.0 | 0.00 | 0.00 | 0.00 | 22 | 999.3 |
| 20260503183005 | 66 | 234 | 0.0 | 0.0 | 0.00 | 0.00 | 0.00 | 18 | 999.4 |
| 20260503181550 | 66 | 289 | 0.0 | 0.0 | 0.00 | 0.00 | 0.00 | 18 | 999.6 |
| 20260503180014 | 65 | 262 | 0.0 | 0.0 | 0.00 | 0.00 | 0.00 | 16 | 999.8 |
| 20260503174554 | 64 | 292 | 0.0 | 0.0 | 0.00 | 0.00 | 0.00 | 17 | 999.8 |
| 20260503173024 | 64 | 305 | 0.0 | 0.0 | 0.00 | 0.00 | 0.00 | 18 | 999.9 |
| 20260503171609 | 64 | 311 | 0.0 | 0.0 | 0.00 | 0.00 | 0.00 | 18 | 1000.0 |
| 20260503160106 | 62 | 314 | 0.0 | 0.0 | 0.00 | 0.00 | 0.00 | 40 | 1000.0 |
| 20260503130106 | 49 | 319 | 0.0 | 0.0 | 0.00 | 0.00 | 0.00 | 78 | 1000.2 |
| 20260503081531 | 44 | 53 | 0.0 | 0.0 | 0.00 | 0.00 | 0.00 | 80 | 1000.0 |
| 20260503080109 | 44 | 44 | 0.0 | 0.0 | 0.00 | 0.00 | 0.00 | 80 | 1000.1 |
| 20260503071522 | 48 | 42 | 0.0 | 0.0 | 0.00 | 0.00 | 0.00 | 75 | 1000.6 |
| 20260503060105 | 50 | 306 | 0.0 | 0.0 | 0.00 | 0.00 | 0.00 | 73 | 1001.8 |
| 20260503054557 | 50 | 306 | 0.0 | 0.0 | 0.00 | 0.00 | 0.00 | 74 | 1002.0 |
| 20260503053004 | 51 | 306 | 0.0 | 0.0 | 0.00 | 0.00 | 0.00 | 73 | 1002.2 |
| 20260503051539 | 51 | 306 | 0.0 | 0.0 | 0.00 | 0.00 | 0.00 | 73 | 1002.3 |
| 20260503050008 | 51 | 306 | 0.0 | 0.0 | 0.00 | 0.00 | 0.00 | 74 | 1002.4 |
| 20260503044546 | 51 | 306 | 0.0 | 0.0 | 0.00 | 0.00 | 0.00 | 76 | 1002.6 |
| 20260503043018 | 51 | 308 | 0.0 | 0.0 | 0.00 | 0.00 | 0.00 | 75 | 1002.7 |
| 20260503041553 | 52 | 228 | 0.0 | 0.0 | 0.00 | 0.00 | 0.00 | 72 | 1002.8 |